CW4713 Weather Reports


Display with metric or nautical units.
time (UTC)temp
F
wind
direction
speed
MPH
gust
MPH
rain 1hr
in
rain 24hr
in
rain mn
in
humidity
%
barometer
mb
20260506100804 38 58 1.0 3.0 0.00 0.00 0.00 77 1009.8
20260506100304 38 29 1.0 2.0 0.00 0.00 0.00 76 1009.8
20260506095804 38 195 3.0 5.0 0.00 0.00 0.00 76 1009.7
20260506095305 38 356 0.0 0.0 0.00 0.00 0.00 76 1009.7
20260506094804 38 356 0.0 1.0 0.00 0.00 0.00 76 1009.7
20260506094304 38 17 0.0 2.0 0.00 0.00 0.00 76 1009.6
20260506084304 39 32 0.0 2.0 0.00 0.00 0.00 73 1009.1
20260506083805 39 158 1.0 2.0 0.00 0.00 0.00 73 1009.0
20260506083304 39 66 2.0 3.0 0.00 0.00 0.00 73 1009.0
20260506082804 39 332 1.0 2.0 0.00 0.00 0.00 73 1008.9
20260506082305 39 353 0.0 0.0 0.00 0.00 0.00 73 1008.9
20260506081805 38 353 1.0 2.0 0.00 0.00 0.00 72 1008.8
20260506081304 39 195 0.0 2.0 0.00 0.00 0.00 72 1008.8
20260506080805 39 244 1.0 5.0 0.00 0.00 0.00 72 1008.8
20260506080305 39 257 1.0 2.0 0.00 0.00 0.00 71 1008.7
20260506062305 45 357 0.0 0.0 0.00 0.00 0.00 61 1007.9
20260506061804 45 357 0.0 0.0 0.00 0.00 0.00 60 1007.8
20260506061304 46 357 0.0 0.0 0.00 0.00 0.00 59 1007.8
20260506060804 46 357 0.0 0.0 0.00 0.00 0.00 58 1007.7
20260506060303 46 357 0.0 0.0 0.00 0.00 0.00 58 1007.6
20260506051304 49 189 0.0 2.0 0.00 0.00 0.00 52 1007.1
20260506050804 49 162 0.0 2.0 0.00 0.00 0.00 51 1007.1
20260506050304 49 148 0.0 2.0 0.00 0.00 0.00 51 1007.0
20260506044804 50 141 3.0 7.0 0.00 0.00 0.00 49 1006.8
20260506044304 50 153 4.0 9.0 0.00 0.00 0.00 49 1006.8
20260506043804 51 186 4.0 14.0 0.00 0.00 0.00 49 1006.7
20260506043304 51 178 4.0 9.0 0.00 0.00 0.00 48 1006.6
20260506042804 52 164 7.0 14.0 0.00 0.00 0.00 47 1006.6
20260506042305 52 148 3.0 13.0 0.00 0.00 0.00 47 1006.6
20260506041804 53 168 6.0 10.0 0.00 0.00 0.00 46 1006.5
20260506041304 54 177 6.0 10.0 0.00 0.00 0.00 46 1006.5
20260506040805 54 190 3.0 8.0 0.00 0.00 0.00 46 1006.3
20260506040304 54 175 3.0 13.0 0.00 0.00 0.00 46 1006.2
20260506035804 55 179 3.0 8.0 0.00 0.00 0.00 47 1006.2
20260506035306 54 208 6.0 12.0 0.00 0.00 0.00 46 1006.2
20260506034804 54 213 1.0 3.0 0.00 0.00 0.00 49 1006.2
20260506034304 54 17 1.0 3.0 0.00 0.00 0.00 49 1006.1
20260506033804 53 84 2.0 6.0 0.00 0.00 0.00 48 1006.1
20260506033304 53 158 2.0 6.0 0.00 0.00 0.00 48 1006.1
20260506032804 53 154 2.0 9.0 0.00 0.00 0.00 48 1006.0
20260506032306 53 162 3.0 8.0 0.00 0.00 0.00 47 1005.9
20260506031804 54 172 5.0 9.0 0.00 0.00 0.00 47 1005.8
20260506031304 54 167 5.0 8.0 0.00 0.00 0.00 48 1005.8
20260506030804 54 92 6.0 12.0 0.00 0.00 0.00 47 1005.7
20260506030304 55 4 3.0 8.0 0.00 0.00 0.00 50 1005.8
20260506025804 54 311 4.0 8.0 0.00 0.00 0.00 50 1005.7
20260506025305 54 7 6.0 7.0 0.00 0.00 0.00 51 1005.6
20260506024804 54 342 2.0 3.0 0.00 0.00 0.00 52 1005.6
20260506024304 54 357 4.0 6.0 0.00 0.00 0.00 52 1005.6
20260506023803 53 356 1.0 5.0 0.00 0.00 0.00 53 1005.7
20260506023304 53 77 2.0 5.0 0.00 0.00 0.00 53 1005.6
20260506022804 53 39 2.0 7.0 0.00 0.00 0.00 53 1005.6
20260506022306 53 337 5.0 9.0 0.00 0.00 0.00 52 1005.6
20260506021804 53 10 0.0 2.0 0.00 0.00 0.00 52 1005.6
20260506021304 53 20 4.0 7.0 0.00 0.00 0.00 51 1005.6
20260506020804 53 32 1.0 3.0 0.00 0.00 0.00 53 1005.6
20260506020304 53 199 3.0 6.0 0.00 0.00 0.00 54 1005.6
20260506015804 53 35 0.0 2.0 0.00 0.00 0.00 55 1005.6
20260506015306 53 315 0.0 3.0 0.00 0.00 0.00 55 1005.6
20260506014804 53 354 3.0 6.0 0.00 0.00 0.00 54 1005.6
20260506014304 53 2 3.0 7.0 0.00 0.00 0.00 54 1005.6
20260506013804 53 56 5.0 7.0 0.00 0.00 0.00 54 1005.6
20260506013304 53 43 5.0 7.0 0.00 0.00 0.00 54 1005.6
20260506012804 54 229 2.0 5.0 0.00 0.00 0.00 56 1005.7
20260506012307 54 160 3.0 6.0 0.00 0.00 0.00 56 1005.7
20260506011804 54 165 3.0 8.0 0.00 0.00 0.00 57 1005.7
20260506011304 53 163 2.0 9.0 0.00 0.00 0.00 61 1005.7
20260506010804 53 217 0.0 2.0 0.00 0.00 0.00 63 1005.7
20260506010304 53 151 3.0 7.0 0.00 0.00 0.00 63 1005.7
20260506005804 52 51 1.0 3.0 0.00 0.00 0.00 64 1005.7
20260506005306 52 358 2.0 3.0 0.00 0.00 0.00 65 1005.6
20260506004804 51 313 2.0 6.0 0.00 0.00 0.00 65 1005.6
20260506004304 51 267 0.0 2.0 0.00 0.00 0.00 64 1005.7
20260506003805 51 313 1.0 3.0 0.00 0.00 0.00 65 1005.7
20260506003305 51 30 3.0 7.0 0.00 0.00 0.00 65 1005.7
20260506002804 51 15 3.0 7.0 0.00 0.00 0.00 65 1005.7
20260506002306 51 37 2.0 8.0 0.00 0.00 0.00 64 1005.8
20260506001804 51 21 5.0 9.0 0.00 0.00 0.00 65 1005.8
20260506001304 52 56 4.0 7.0 0.00 0.00 0.00 65 1005.8
20260506000804 52 57 5.0 8.0 0.00 0.00 0.00 65 1005.8
20260506000304 52 179 3.0 8.0 0.00 0.00 0.00 65 1005.8
20260505235804 52 323 2.0 8.0 0.00 0.01 0.00 65 1005.8
20260505235305 52 327 5.0 9.0 0.00 0.01 0.00 66 1005.7
20260505234805 51 13 5.0 9.0 0.00 0.01 0.00 67 1005.8
20260505234304 51 328 5.0 9.0 0.00 0.01 0.00 67 1005.8
20260505233804 51 357 5.0 9.0 0.00 0.01 0.00 67 1005.8
20260505233305 51 35 3.0 6.0 0.00 0.01 0.00 67 1005.8
20260505232804 51 352 5.0 8.0 0.00 0.01 0.00 67 1005.8
20260505232305 50 25 3.0 7.0 0.00 0.01 0.00 69 1005.8
20260505231805 50 337 2.0 5.0 0.00 0.01 0.00 70 1005.8
20260505231304 50 232 0.0 0.0 0.00 0.01 0.00 70 1005.8
20260505230804 50 232 0.0 0.0 0.00 0.01 0.00 70 1005.8
20260505230304 49 210 0.0 1.0 0.00 0.01 0.00 71 1005.8
20260505225804 49 288 2.0 5.0 0.00 0.01 0.00 70 1005.8
20260505225306 49 274 2.0 6.0 0.00 0.01 0.00 70 1005.8
20260505224804 49 280 2.0 5.0 0.00 0.01 0.00 69 1005.8
20260505224304 49 270 3.0 7.0 0.00 0.01 0.00 69 1005.7
20260505223804 49 288 2.0 7.0 0.00 0.01 0.00 70 1005.7
20260505223304 49 270 3.0 7.0 0.00 0.01 0.00 71 1005.7
20260505222804 49 286 2.0 5.0 0.00 0.01 0.00 71 1005.6
20260505222305 49 286 2.0 6.0 0.00 0.01 0.00 72 1005.6
20260505221804 49 290 2.0 6.0 0.00 0.01 0.00 71 1005.6
20260505221304 49 292 1.0 6.0 0.00 0.01 0.00 72 1005.6
20260505220805 49 300 3.0 7.0 0.00 0.01 0.00 72 1005.6
20260505220305 49 302 3.0 7.0 0.00 0.01 0.00 72 1005.6
20260505215804 50 297 5.0 8.0 0.00 0.01 0.00 72 1005.5
20260505215305 50 296 3.0 7.0 0.00 0.01 0.00 72 1005.4
20260505214804 50 267 0.0 0.0 0.00 0.01 0.00 72 1005.4
20260505214304 50 267 0.0 5.0 0.00 0.01 0.00 70 1005.4
20260505213804 50 290 1.0 5.0 0.00 0.01 0.00 70 1005.3
20260505213304 49 237 3.0 5.0 0.00 0.01 0.00 71 1005.2
20260505212804 49 271 2.0 5.0 0.00 0.01 0.00 71 1005.3
20260505212305 50 265 2.0 6.0 0.00 0.01 0.00 74 1005.2
20260505211804 49 291 4.0 6.0 0.00 0.01 0.00 75 1005.2
20260505211304 49 323 4.0 8.0 0.00 0.01 0.00 75 1005.2
20260505210804 49 324 5.0 9.0 0.00 0.01 0.00 76 1005.1
20260505210304 49 304 3.0 8.0 0.00 0.01 0.00 77 1005.1
20260505205804 49 306 3.0 7.0 0.00 0.01 0.00 78 1005.1
20260505205305 49 333 4.0 7.0 0.00 0.01 0.00 78 1005.1
20260505204805 48 308 5.0 10.0 0.00 0.01 0.00 78 1005.0
20260505204304 48 313 4.0 6.0 0.00 0.01 0.00 75 1005.0
20260505203804 48 310 2.0 7.0 0.00 0.01 0.00 81 1005.0
20260505203304 48 310 4.0 7.0 0.00 0.01 0.00 83 1004.9
20260505202805 48 308 3.0 7.0 0.00 0.01 0.00 83 1004.9
20260505202306 48 305 2.0 7.0 0.00 0.01 0.00 84 1004.9
20260505201804 48 318 4.0 7.0 0.00 0.01 0.00 84 1004.8
20260505201304 48 290 2.0 7.0 0.00 0.01 0.00 85 1004.8
20260505200804 48 315 3.0 8.0 0.00 0.01 0.00 86 1004.8
20260505200304 48 293 3.0 6.0 0.00 0.01 0.00 87 1004.8
20260505195804 48 293 1.0 5.0 0.00 0.01 0.00 89 1004.8
20260505194804 47 326 3.0 8.0 0.00 0.01 0.00 90 1004.7
20260505194304 47 316 5.0 7.0 0.00 0.01 0.00 90 1004.7
20260505193803 47 305 3.0 7.0 0.00 0.01 0.00 91 1004.7
20260505193304 46 294 2.0 5.0 0.00 0.01 0.00 91 1004.7
20260505192804 46 326 3.0 6.0 0.00 0.01 0.00 93 1004.7
20260505192305 46 338 4.0 7.0 0.00 0.01 0.00 95 1004.6
20260505191803 45 337 4.0 7.0 0.00 0.01 0.00 96 1004.6
20260505191304 45 333 0.0 3.0 0.00 0.01 0.00 96 1004.6
20260505190804 45 1 2.0 5.0 0.00 0.01 0.00 96 1004.6
20260505190304 45 323 0.0 0.0 0.00 0.01 0.00 96 1004.6
20260505185804 44 323 0.0 0.0 0.00 0.01 0.00 96 1004.6
20260505185305 44 323 0.0 2.0 0.00 0.01 0.00 97 1004.6
20260505184804 44 326 1.0 3.0 0.00 0.01 0.00 97 1004.6
20260505184303 44 322 1.0 1.0 0.00 0.01 0.00 97 1004.6
20260505183804 44 48 1.0 1.0 0.00 0.01 0.00 97 1004.7
20260505183304 44 27 1.0 5.0 0.00 0.01 0.00 97 1004.6
20260505182804 43 334 2.0 6.0 0.00 0.01 0.00 97 1004.6
20260505182306 43 0 0.0 0.0 0.00 0.01 0.00 97 1004.6
20260505181804 43 0 0.0 1.0 0.00 0.01 0.00 97 1004.5
20260505181304 43 2 3.0 5.0 0.00 0.01 0.00 97 1004.5
20260505180804 43 308 1.0 3.0 0.00 0.01 0.00 97 1004.5
20260505180304 43 309 1.0 5.0 0.00 0.01 0.00 97 1004.5
20260505175804 43 291 1.0 3.0 0.00 0.02 0.00 97 1004.5
20260505175305 42 288 2.0 3.0 0.00 0.03 0.00 97 1004.4
20260505174804 43 264 1.0 2.0 0.00 0.03 0.00 97 1004.4
20260505174304 43 252 1.0 3.0 0.00 0.03 0.00 97 1004.4
20260505173804 42 270 2.0 3.0 0.00 0.03 0.00 97 1004.3
20260505173304 43 208 2.0 3.0 0.00 0.04 0.00 97 1004.3
20260505172804 42 246 2.0 6.0 0.00 0.04 0.00 97 1004.2
20260505172306 42 244 3.0 5.0 0.00 0.05 0.00 97 1004.1
20260505171805 42 264 2.0 3.0 0.00 0.05 0.00 97 1004.0
20260505171304 42 209 0.0 2.0 0.00 0.06 0.00 97 1004.0
20260505170804 42 209 0.0 0.0 0.00 0.06 0.00 97 1003.9
20260505170304 42 209 0.0 2.0 0.00 0.07 0.00 97 1003.9
20260505165804 42 233 0.0 2.0 0.00 0.07 0.00 97 1003.8
20260505165306 41 232 0.0 0.0 0.00 0.07 0.00 97 1003.8
20260505164804 41 232 0.0 1.0 0.00 0.07 0.00 97 1003.8
20260505164304 41 236 1.0 2.0 0.00 0.08 0.00 97 1003.7
20260505163804 41 147 0.0 1.0 0.00 0.08 0.00 97 1003.6
20260505163304 41 147 0.0 0.0 0.00 0.09 0.00 97 1003.6
20260505162804 41 161 2.0 5.0 0.00 0.09 0.00 97 1003.6
20260505162306 41 170 2.0 5.0 0.00 0.09 0.00 97 1003.5
20260505161804 40 321 3.0 5.0 0.00 0.10 0.00 97 1003.4
20260505161305 40 116 0.0 0.0 0.00 0.10 0.00 97 1003.5
20260505160804 40 116 0.0 0.0 0.00 0.11 0.00 97 1003.4
20260505160304 40 116 0.0 0.0 0.00 0.11 0.00 97 1003.3
20260505153304 39 71 0.0 0.0 0.00 0.12 0.00 97 1003.3
20260505152804 39 71 0.0 0.0 0.00 0.12 0.00 97 1003.2
20260505152305 39 71 0.0 2.0 0.00 0.13 0.00 97 1003.2
20260505151804 39 38 0.0 2.0 0.00 0.13 0.00 97 1003.2
20260505151304 39 12 1.0 3.0 0.00 0.13 0.00 97 1003.1
20260505150804 39 58 0.0 0.0 0.00 0.13 0.00 97 1003.1
20260505150304 39 58 1.0 2.0 0.00 0.14 0.00 97 1003.2
20260505140304 39 335 0.0 2.0 0.00 0.17 0.00 97 1002.7
20260505130304 38 218 0.0 2.0 0.00 0.21 0.00 97 1002.3
20260505124805 38 35 0.0 0.0 0.00 0.23 0.00 97 1002.2
20260505124305 38 35 0.0 0.0 0.00 0.23 0.00 97 1002.2
20260505123804 38 50 2.0 5.0 0.00 0.24 0.00 97 1002.3
20260505123305 38 23 0.0 1.0 0.00 0.25 0.00 97 1002.2
20260505122805 38 173 1.0 3.0 0.00 0.25 0.00 97 1002.2
20260505122305 38 3 3.0 3.0 0.00 0.26 0.00 97 1002.2
20260505121804 38 66 0.0 0.0 0.00 0.26 0.00 97 1002.1
20260505121304 39 69 1.0 3.0 0.00 0.27 0.00 97 1002.4
20260505120804 39 135 1.0 2.0 0.00 0.27 0.00 97 1002.4
20260505120304 39 169 0.0 1.0 0.00 0.28 0.00 97 1002.3
20260505115804 39 89 1.0 2.0 0.00 0.29 0.00 97 1002.3
20260505115305 39 210 0.0 0.0 0.00 0.29 0.00 97 1002.3
20260505114804 39 210 0.0 0.0 0.00 0.29 0.00 96 1002.4
20260505114303 39 210 0.0 2.0 0.00 0.30 0.00 96 1002.4
20260505113804 39 146 0.0 2.0 0.00 0.30 0.00 96 1002.6
20260505113304 39 89 2.0 7.0 0.00 0.30 0.00 96 1002.7
20260505112804 39 186 2.0 3.0 0.00 0.31 0.00 96 1002.7
20260505112305 40 122 1.0 3.0 0.00 0.31 0.00 96 1002.7
20260505111804 40 155 1.0 3.0 0.00 0.31 0.00 96 1002.6
20260505111305 40 28 1.0 3.0 0.00 0.32 0.00 96 1002.7
20260505110804 40 6 0.0 2.0 0.00 0.32 0.00 96 1002.8
20260505110305 40 340 0.0 1.0 0.00 0.32 0.00 96 1002.7
20260505101804 40 294 0.0 0.0 0.00 0.36 0.00 96 1002.7
20260505101304 40 294 0.0 0.0 0.00 0.36 0.00 96 1002.7